TK981 LTFM-LTAI

Flight info

Callsign TK981
Flight time 0h 52m
Altitude 41000
Route RATVU UT35 UNEPI UT38 LEMDA DCT KUMRU
Aircraft C700/M-SBDGHM1RWXY/LB2

Departure

Time 2026-05-06 09:02
Airport İstanbul Airport (LTFM)

Arrival

Time 2026-05-06 09:55
Airport Antalya International Airport (LTAI)
Time Latitude Longitude Altitude Speed Heading
2026-05-06 08:35 41.25864 28.73495 326 ft 0 kts 107°
2026-05-06 08:50 41.25867 28.73479 325 ft 2 kts 100°
2026-05-06 08:50 41.25869 28.73458 327 ft 2 kts 92°
2026-05-06 08:51 41.25868 28.73436 325 ft 2 kts 78°
2026-05-06 08:51 41.25863 28.73416 325 ft 2 kts 60°
2026-05-06 08:51 41.25853 28.73399 327 ft 2 kts 40°
2026-05-06 08:51 41.25839 28.73387 327 ft 2 kts 23°
2026-05-06 08:52 41.25833 28.73384 328 ft 0 kts 17°
2026-05-06 08:57 41.25835 28.73385 328 ft 2 kts 17°
2026-05-06 08:57 41.25877 28.73402 328 ft 10 kts 17°
2026-05-06 08:57 41.25908 28.73362 326 ft 10 kts 287°
2026-05-06 08:57 41.25912 28.73313 328 ft 0 kts 271°
2026-05-06 08:58 41.25912 28.73279 327 ft 1 kts 268°
2026-05-06 08:58 41.25913 28.73226 327 ft 11 kts 272°
2026-05-06 08:58 41.25929 28.73147 327 ft 10 kts 318°
2026-05-06 08:58 41.26010 28.73122 328 ft 14 kts
2026-05-06 08:59 41.26120 28.73126 328 ft 15 kts
2026-05-06 08:59 41.26193 28.73117 326 ft 10 kts 336°
2026-05-06 08:59 41.26215 28.73057 328 ft 9 kts 275°
2026-05-06 08:59 41.26218 28.72969 328 ft 7 kts 270°
2026-05-06 09:00 41.26217 28.72879 328 ft 12 kts 269°
2026-05-06 09:00 41.26216 28.72760 328 ft 14 kts 269°
2026-05-06 09:00 41.26212 28.72630 328 ft 14 kts 268°
2026-05-06 09:00 41.26225 28.72541 325 ft 9 kts 316°
2026-05-06 09:01 41.26255 28.72528 328 ft 0 kts 359°
2026-05-06 09:01 41.26351 28.72527 327 ft 46 kts
2026-05-06 09:01 41.26965 28.72514 327 ft 126 kts 359°
2026-05-06 09:02 41.28008 28.72463 631 ft 166 kts 359°
2026-05-06 09:02 41.29333 28.72367 878 ft 217 kts
2026-05-06 09:02 41.30979 28.72607 1244 ft 253 kts
2026-05-06 09:02 41.32689 28.72721 1649 ft 252 kts 359°
2026-05-06 09:03 41.34438 28.72269 2053 ft 252 kts 340°
2026-05-06 09:03 41.36023 28.71085 2451 ft 280 kts 321°
2026-05-06 09:03 41.37381 28.69009 2984 ft 315 kts 301°
2026-05-06 09:03 41.38087 28.66368 3551 ft 300 kts 280°
2026-05-06 09:04 41.38047 28.63563 4089 ft 294 kts 262°
2026-05-06 09:04 41.37467 28.61046 4568 ft 276 kts 248°
2026-05-06 09:04 41.36494 28.58943 4965 ft 267 kts 234°
2026-05-06 09:04 41.35151 28.57198 5371 ft 275 kts 220°
2026-05-06 09:05 41.33463 28.55915 5772 ft 284 kts 204°
2026-05-06 09:05 41.31525 28.55240 6186 ft 289 kts 188°
2026-05-06 09:05 41.29501 28.55192 6594 ft 292 kts 178°
2026-05-06 09:05 41.27492 28.55263 6989 ft 294 kts 176°
2026-05-06 09:06 41.25497 28.55835 7379 ft 294 kts 158°
2026-05-06 09:06 41.23691 28.57070 7798 ft 292 kts 143°
2026-05-06 09:06 41.22145 28.58865 8242 ft 305 kts 132°
2026-05-06 09:06 41.20564 28.60913 8788 ft 326 kts 133°
2026-05-06 09:07 41.18907 28.63024 9362 ft 330 kts 133°
2026-05-06 09:07 41.17250 28.65134 9942 ft 329 kts 133°
2026-05-06 09:07 41.15603 28.67241 10460 ft 328 kts 133°
2026-05-06 09:07 41.13986 28.69310 10950 ft 328 kts 134°
2026-05-06 09:08 41.12371 28.71605 11501 ft 351 kts 124°
2026-05-06 09:08 41.11002 28.74391 12163 ft 370 kts 120°
2026-05-06 09:08 41.09561 28.77349 12885 ft 387 kts 120°
2026-05-06 09:08 41.08077 28.80338 13639 ft 388 kts 121°
2026-05-06 09:09 41.06617 28.83288 14313 ft 387 kts 121°
2026-05-06 09:09 41.04900 28.86117 14953 ft 400 kts 132°
2026-05-06 09:09 41.02742 28.88493 15635 ft 405 kts 144°
2026-05-06 09:09 41.00231 28.90289 16335 ft 415 kts 156°
2026-05-06 09:10 40.97456 28.91395 17064 ft 418 kts 168°
2026-05-06 09:10 40.94562 28.91734 17795 ft 416 kts 181°
2026-05-06 09:10 40.91691 28.91434 18529 ft 412 kts 186°
2026-05-06 09:10 40.88884 28.91066 19178 ft 410 kts 186°
2026-05-06 09:11 40.86031 28.90993 19828 ft 409 kts 176°
2026-05-06 09:11 40.83188 28.91255 20501 ft 407 kts 176°
2026-05-06 09:11 40.80359 28.91477 21177 ft 405 kts 177°
2026-05-06 09:11 40.77539 28.91686 21849 ft 405 kts 177°
2026-05-06 09:12 40.74758 28.91911 22528 ft 405 kts 177°
2026-05-06 09:12 40.71950 28.92146 23225 ft 404 kts 177°
2026-05-06 09:12 40.69142 28.92371 23879 ft 401 kts 177°
2026-05-06 09:12 40.66864 28.92550 24347 ft 399 kts 177°
2026-05-06 09:13 40.64101 28.92771 24915 ft 396 kts 177°
2026-05-06 09:13 40.61342 28.92993 25480 ft 396 kts 177°
2026-05-06 09:13 40.58619 28.93217 26043 ft 396 kts 176°
2026-05-06 09:13 40.55896 28.93869 26610 ft 399 kts 164°
2026-05-06 09:14 40.53316 28.95205 27184 ft 399 kts 153°
2026-05-06 09:14 40.50951 28.97102 27775 ft 397 kts 146°
2026-05-06 09:14 40.48648 28.99077 28364 ft 392 kts 147°
2026-05-06 09:14 40.46372 29.01017 28926 ft 389 kts 147°
2026-05-06 09:15 40.44100 29.02950 29481 ft 389 kts 147°
2026-05-06 09:15 40.41827 29.04887 30040 ft 390 kts 147°
2026-05-06 09:15 40.39551 29.06825 30524 ft 390 kts 147°
2026-05-06 09:15 40.37268 29.08765 30996 ft 390 kts 147°
2026-05-06 09:16 40.35017 29.10678 31457 ft 390 kts 147°
2026-05-06 09:16 40.32705 29.12639 31924 ft 391 kts 147°
2026-05-06 09:16 40.30450 29.14552 32379 ft 391 kts 147°
2026-05-06 09:16 40.28165 29.16489 32831 ft 391 kts 147°
2026-05-06 09:17 40.25871 29.18431 33284 ft 391 kts 147°
2026-05-06 09:17 40.23573 29.20375 33734 ft 396 kts 147°
2026-05-06 09:17 40.21230 29.22356 34197 ft 404 kts 147°
2026-05-06 09:17 40.18851 29.24289 34611 ft 410 kts 152°
2026-05-06 09:18 40.16185 29.25738 35054 ft 415 kts 161°
2026-05-06 09:18 40.13449 29.27023 35538 ft 420 kts 161°
2026-05-06 09:18 40.10691 29.28338 36030 ft 423 kts 161°
2026-05-06 09:18 40.07916 29.29666 36533 ft 426 kts 161°
2026-05-06 09:19 40.05161 29.30975 37016 ft 428 kts 161°
2026-05-06 09:19 40.02358 29.32301 37512 ft 429 kts 161°
2026-05-06 09:19 39.99544 29.33634 37991 ft 430 kts 161°
2026-05-06 09:19 39.96729 29.34971 38502 ft 430 kts 161°
2026-05-06 09:20 39.93911 29.36305 38929 ft 430 kts 161°
2026-05-06 09:20 39.92044 29.37188 39176 ft 430 kts 161°
2026-05-06 09:20 39.89243 29.38611 39550 ft 431 kts 158°
2026-05-06 09:20 39.85591 29.40643 40039 ft 430 kts 158°
2026-05-06 09:21 39.82829 29.42162 40409 ft 430 kts 158°
2026-05-06 09:21 39.80963 29.43181 40657 ft 429 kts 159°
2026-05-06 09:21 39.78241 29.44672 41014 ft 429 kts 158°
2026-05-06 09:22 39.72631 29.47757 41088 ft 446 kts 158°
2026-05-06 09:22 39.66798 29.50951 41092 ft 463 kts 159°
2026-05-06 09:23 39.60700 29.54114 41099 ft 479 kts 160°
2026-05-06 09:23 39.54422 29.57275 41100 ft 494 kts 160°
2026-05-06 09:24 39.47914 29.60513 41099 ft 507 kts 160°
2026-05-06 09:24 39.41294 29.63814 41096 ft 509 kts 160°
2026-05-06 09:25 39.34709 29.67085 41093 ft 504 kts 160°
2026-05-06 09:25 39.28215 29.70305 41088 ft 501 kts 160°
2026-05-06 09:26 39.21690 29.73534 41079 ft 503 kts 161°
2026-05-06 09:26 39.15127 29.76775 41091 ft 505 kts 161°
2026-05-06 09:27 39.08535 29.80025 41088 ft 507 kts 161°
2026-05-06 09:27 39.01973 29.83253 41094 ft 507 kts 161°
2026-05-06 09:28 38.95401 29.86480 41092 ft 504 kts 161°
2026-05-06 09:28 38.88866 29.89682 41089 ft 502 kts 161°
2026-05-06 09:29 38.82309 29.92805 41085 ft 503 kts 162°
2026-05-06 09:29 38.75764 29.95908 41091 ft 506 kts 161°
2026-05-06 09:30 38.69133 29.99063 40869 ft 510 kts 162°
2026-05-06 09:30 38.65803 30.00632 40206 ft 508 kts 161°
2026-05-06 09:30 38.62502 30.02194 39536 ft 501 kts 161°
2026-05-06 09:30 38.59265 30.03730 38909 ft 491 kts 161°
2026-05-06 09:31 38.56088 30.05233 38216 ft 480 kts 161°
2026-05-06 09:31 38.53018 30.06678 37615 ft 470 kts 161°
2026-05-06 09:31 38.49959 30.08118 37005 ft 466 kts 161°
2026-05-06 09:31 38.46910 30.09554 36397 ft 469 kts 161°
2026-05-06 09:32 38.43803 30.11015 35763 ft 480 kts 161°
2026-05-06 09:32 38.40637 30.12503 35110 ft 489 kts 161°
2026-05-06 09:32 38.37473 30.13992 34462 ft 489 kts 161°
2026-05-06 09:32 38.34294 30.15487 33781 ft 486 kts 161°
2026-05-06 09:33 38.31131 30.16962 33137 ft 481 kts 161°
2026-05-06 09:33 38.28072 30.18695 32509 ft 479 kts 152°
2026-05-06 09:33 38.25267 30.21022 31879 ft 483 kts 143°
2026-05-06 09:33 38.22786 30.23870 31239 ft 487 kts 134°
2026-05-06 09:34 38.20818 30.26932 30659 ft 407 kts 126°
2026-05-06 09:34 38.19259 30.29634 30088 ft 357 kts 126°
2026-05-06 09:34 38.17834 30.32062 29239 ft 331 kts 126°
2026-05-06 09:34 38.16496 30.34360 28441 ft 315 kts 126°
2026-05-06 09:35 38.15218 30.36571 27670 ft 304 kts 126°
2026-05-06 09:35 38.13980 30.38704 26937 ft 297 kts 126°
2026-05-06 09:35 38.12762 30.40796 26226 ft 292 kts 126°
2026-05-06 09:35 38.11571 30.42840 25539 ft 294 kts 126°
2026-05-06 09:36 38.10264 30.45089 24949 ft 337 kts 126°
2026-05-06 09:36 38.08794 30.47617 24341 ft 372 kts 126°
2026-05-06 09:36 38.07180 30.50387 23737 ft 407 kts 126°
2026-05-06 09:36 38.05429 30.53391 23015 ft 436 kts 126°
2026-05-06 09:37 38.03625 30.56482 22299 ft 442 kts 126°
2026-05-06 09:37 38.01747 30.59533 21558 ft 436 kts 131°
2026-05-06 09:37 37.99511 30.62155 20815 ft 428 kts 142°
2026-05-06 09:37 37.97084 30.64168 20111 ft 419 kts 152°
2026-05-06 09:38 37.94447 30.65643 19422 ft 410 kts 161°
2026-05-06 09:38 37.91713 30.66544 18742 ft 403 kts 171°
2026-05-06 09:38 37.88946 30.66961 18045 ft 399 kts 175°
2026-05-06 09:38 37.86188 30.67316 17311 ft 396 kts 175°
2026-05-06 09:39 37.83437 30.67691 16576 ft 394 kts 175°
2026-05-06 09:39 37.80750 30.68059 15881 ft 392 kts 175°
2026-05-06 09:39 37.78042 30.68422 15186 ft 390 kts 175°
2026-05-06 09:39 37.75314 30.68783 14497 ft 387 kts 175°
2026-05-06 09:40 37.72686 30.69135 13847 ft 383 kts 175°
2026-05-06 09:40 37.70040 30.69492 13105 ft 379 kts 174°
2026-05-06 09:40 37.64889 30.70179 12086 ft 365 kts 174°
2026-05-06 09:41 37.62288 30.70525 12085 ft 387 kts 174°
2026-05-06 09:41 37.59585 30.70892 12081 ft 392 kts 174°
2026-05-06 09:41 37.56903 30.71251 12079 ft 392 kts 174°
2026-05-06 09:41 37.54191 30.71609 12076 ft 391 kts 174°
2026-05-06 09:42 37.51477 30.71968 12063 ft 391 kts 174°
2026-05-06 09:42 37.48768 30.72329 12059 ft 391 kts 174°
2026-05-06 09:42 37.46055 30.72693 12059 ft 391 kts 174°
2026-05-06 09:42 37.43352 30.73053 12055 ft 392 kts 174°
2026-05-06 09:43 37.40632 30.73440 12057 ft 393 kts 173°
2026-05-06 09:43 37.37918 30.73895 11900 ft 391 kts 173°
2026-05-06 09:43 37.35261 30.74296 11412 ft 377 kts 174°
2026-05-06 09:43 37.32752 30.74672 10930 ft 355 kts 173°
2026-05-06 09:44 37.30370 30.75055 10470 ft 335 kts 173°
2026-05-06 09:44 37.28118 30.75417 10035 ft 319 kts 173°
2026-05-06 09:44 37.25961 30.75756 9608 ft 306 kts 173°
2026-05-06 09:44 37.23887 30.76079 9202 ft 294 kts 173°
2026-05-06 09:45 37.21906 30.76390 8825 ft 286 kts 173°
2026-05-06 09:45 37.19939 30.76704 8455 ft 284 kts 173°
2026-05-06 09:45 37.17969 30.77031 8072 ft 286 kts 173°
2026-05-06 09:45 37.15991 30.77371 7696 ft 287 kts 172°
2026-05-06 09:46 37.14009 30.77722 7317 ft 285 kts 172°
2026-05-06 09:46 37.12065 30.78080 6945 ft 280 kts 172°
2026-05-06 09:46 37.10171 30.78443 6581 ft 275 kts 171°
2026-05-06 09:46 37.08299 30.78813 6042 ft 272 kts 171°
2026-05-06 09:47 37.06409 30.79199 5332 ft 276 kts 171°
2026-05-06 09:47 37.04497 30.79602 4614 ft 280 kts 170°
2026-05-06 09:47 37.02593 30.80016 3896 ft 282 kts 169°
2026-05-06 09:47 37.00764 30.80868 3160 ft 283 kts 144°
2026-05-06 09:48 36.99557 30.82683 3054 ft 259 kts 120°
2026-05-06 09:48 36.98371 30.84241 3026 ft 238 kts 146°
2026-05-06 09:48 36.96881 30.84942 3033 ft 224 kts 172°
2026-05-06 09:48 36.95383 30.84749 3031 ft 213 kts 200°
2026-05-06 09:49 36.94182 30.83772 3042 ft 202 kts 223°
2026-05-06 09:49 36.93271 30.82503 3029 ft 195 kts 238°
2026-05-06 09:49 36.92969 30.80926 3044 ft 185 kts 274°
2026-05-06 09:49 36.93299 30.79418 3029 ft 179 kts 306°
2026-05-06 09:50 36.94308 30.78585 3048 ft 178 kts 345°
2026-05-06 09:50 36.95540 30.78320 3056 ft 181 kts 356°
2026-05-06 09:50 36.96813 30.78259 3059 ft 185 kts 358°
2026-05-06 09:50 36.98122 30.78214 3057 ft 193 kts 358°
2026-05-06 09:51 36.99487 30.78171 3058 ft 200 kts 358°
2026-05-06 09:51 37.00834 30.78514 3035 ft 206 kts 30°
2026-05-06 09:51 37.01743 30.79878 3035 ft 205 kts 69°
2026-05-06 09:51 37.01745 30.81528 3022 ft 182 kts 111°
2026-05-06 09:52 37.00925 30.82580 3021 ft 166 kts 159°
2026-05-06 09:52 36.99847 30.82559 3075 ft 146 kts 195°
2026-05-06 09:52 36.98979 30.82368 3105 ft 123 kts 187°
2026-05-06 09:52 36.98127 30.82218 2953 ft 126 kts 188°
2026-05-06 09:53 36.97247 30.82097 2518 ft 128 kts 185°
2026-05-06 09:53 36.96367 30.81990 2031 ft 129 kts 186°
2026-05-06 09:53 36.95464 30.81860 1529 ft 132 kts 187°
2026-05-06 09:53 36.94553 30.81714 1112 ft 129 kts 187°
2026-05-06 09:54 36.93694 30.81547 881 ft 117 kts 189°
2026-05-06 09:54 36.92902 30.81400 593 ft 112 kts 187°
2026-05-06 09:54 36.92111 30.81286 409 ft 114 kts 186°
2026-05-06 09:54 36.91329 30.81167 279 ft 112 kts 184°
2026-05-06 09:55 36.90583 30.81062 196 ft 96 kts 185°
2026-05-06 09:55 36.90186 30.81013 179 ft 25 kts 186°
2026-05-06 09:55 36.90133 30.81003 179 ft 0 kts 191°
2026-05-06 09:55 36.90085 30.80995 179 ft 14 kts 187°
2026-05-06 09:56 36.89948 30.80977 179 ft 25 kts 185°
2026-05-06 09:56 36.89734 30.80959 176 ft 35 kts 183°
2026-05-06 09:56 36.89499 30.80933 175 ft 30 kts 190°
2026-05-06 09:56 36.95529 30.81871 1563 ft 132 kts 186°
2026-05-06 09:57 36.92163 30.81293 413 ft 114 kts 186°
2026-05-06 09:57 36.91377 30.81172 289 ft 112 kts 184°
2026-05-06 09:57 36.90624 30.81068 205 ft 97 kts 185°
2026-05-06 09:57 36.90207 30.81015 179 ft 26 kts 186°
2026-05-06 09:58 36.90587 30.81062 197 ft 96 kts 185°
2026-05-06 09:58 36.90187 30.81013 179 ft 25 kts 186°